[[{"header":{"parameterUnit":"m.s-1","parameterCategory":2,"la1":30.2991,"la2":30.254,"lo1":-89.0895,"lo2":-89.0444,"dy":0.0017,"dx":0.0017,"nx":28,"ny":28,"refTime":"2024-02-19T03:00:00:Z","depth":"0","parameterNumber":2,"parameterNumberName":"U-component_of_CURRENTS"},"data":[0,0,0,0,0,0,0,0,0,0,0,0,0,0,0,0,0,0,0,0,0,0,0,0,0,0,0,0,0,0,0,0,0,0,0,0,0,0,0,0,0,0,0,0,0,0,0,0,0,0,0,0,0,0,0,0,0,0,0.2509,0.2509,0,0.2569,0.2569,0.257,0.2578,0.2578,0.2577,0.2577,0.258,0.258,0.2581,0,0,0,0,0,0,0,0,0,0,0,0,0,0.2408,0.2409,0.2508,0.251,0.2511,0.2569,0.2569,0.257,0.2578,0.2578,0.2577,0.2577,0.258,0.258,0.2581,0,0,0,0,0,0,0,0,0,0,0,0,0,0.2455,0.241,0.2508,0.2524,0.2526,0.2569,0.2569,0.257,0.2578,0.2578,0.2577,0.2577,0.258,0.258,0.2581,0.2594,0,0,0.2583,0.2583,0,0,0,0,0,0,0,0,0.2453,0.2459,0.252,0.2523,0.2525,0.2568,0.2535,0.2576,0.2578,0.2555,0.2577,0.2576,0.2573,0.2574,0.2583,0.2594,0.2594,0.2583,0.2583,0.2583,0.2583,0,0,0,0,0,0,0,0.2449,0.2456,0.253,0.2522,0.2525,0.253,0.2536,0.2543,0.2563,0.2557,0.2559,0.257,0.2573,0.2583,0.2583,0.2594,0.2583,0.2583,0.2583,0.2584,0.2653,0.2655,0,0,0,0,0,0,0.2448,0.2453,0.2528,0.2532,0.249,0.2533,0.2539,0.2552,0.2564,0.2567,0.257,0.257,0.2582,0.2582,0.2583,0.2626,0.2583,0.2584,0.2584,0.2652,0.2654,0.2655,0,0,0,0,0,0,0.2446,0.2454,0.2525,0.2496,0.2505,0.2535,0.255,0.2554,0.2566,0.2575,0.2576,0.2579,0.2582,0.2582,0.2604,0.2625,0.2584,0.2584,0.265,0.2652,0.2655,0.2694,0,0,0,0,0,0,0.2442,0.2453,0.246,0.2496,0.2507,0.2557,0.2551,0.2555,0.2575,0.2575,0.2583,0.2583,0.2581,0.2603,0.2605,0.2625,0.2585,0.2648,0.2651,0.2654,0.2691,0.2697,0.2703,0,0,0,0,0,0.2439,0.2451,0.246,0.2469,0.2517,0.2559,0.2565,0.2582,0.2576,0.2589,0.2598,0.2582,0.2622,0.2605,0.2606,0.2627,0.2647,0.265,0.2654,0.2688,0.2696,0.2703,0,0,0,0,0,0,0.2406,0.2455,0.2465,0.249,0.2525,0.2561,0.2575,0.2585,0.2603,0.2601,0.26,0.2601,0.2632,0.2626,0.2607,0.2658,0.2633,0.2637,0.2659,0.2666,0.2672,0.2684,0.2585,0,0,0,0,0,0.2405,0.2431,0.2475,0.2496,0.2514,0.2544,0.2561,0.2577,0.26,0.2607,0.2613,0.2625,0.2648,0.2653,0.2669,0.2691,0.2705,0.2707,0.2713,0.2718,0.2731,0.2776,0.2787,0.2667,0.2667,0.2666,0,0,0.2396,0.2429,0.2441,0.2492,0.2518,0.2552,0.2553,0.2586,0.2615,0.2604,0.2636,0.2647,0.266,0.2693,0.2705,0.2688,0.2762,0.2723,0.2727,0.2737,0.2781,0.2793,0.2803,0.2669,0.2668,0.2668,0,0,0.2397,0.2424,0.2447,0.2484,0.2534,0.2558,0.2569,0.2609,0.2627,0.2662,0.2669,0.2696,0.2715,0.2739,0.2751,0.28,0.2796,0.28,0.2835,0.2878,0.2889,0.2898,0.2934,0.2946,0.2798,0.2798,0.2798,0,0.2382,0.2425,0.2459,0.2498,0.253,0.2561,0.2595,0.2625,0.2666,0.2689,0.2676,0.2737,0.2742,0.2797,0.2817,0.2814,0.2835,0.2802,0.2886,0.2896,0.2904,0.2939,0.2952,0.28,0.28,0.28,0.28,0,0.2411,0.2445,0.2465,0.2525,0.2561,0.2599,0.2649,0.268,0.2698,0.2729,0.2784,0.2801,0.2837,0.2844,0.2845,0.2914,0.2908,0.2892,0.2865,0.2919,0.2952,0.2965,0.2804,0.2803,0.2802,0.2802,0,0,0.2371,0.2465,0.2471,0.2506,0.2583,0.2613,0.267,0.2731,0.2769,0.2805,0.2858,0.2901,0.2911,0.2928,0.2935,0.297,0.3048,0.2959,0.296,0.2991,0.3147,0.3164,0.3178,0.3045,0.3047,0.3049,0.3146,0,0.2381,0.2451,0.2499,0.256,0.2601,0.2657,0.2709,0.2769,0.2812,0.2868,0.2907,0.2956,0.2944,0.2963,0.3003,0.3042,0.3083,0.3024,0.3094,0.3097,0.3102,0.3195,0.315,0.3234,0.3158,0.316,0.3161,0,0.239,0.2442,0.25,0.2591,0.2613,0.265,0.2737,0.279,0.2881,0.2918,0.2975,0.3007,0.3083,0.3053,0.3154,0.3117,0.3142,0.3163,0.3166,0.3179,0.3138,0.3169,0.326,0.3196,0.3181,0.3179,0.3178,0,0.2346,0.2439,0.2483,0.2516,0.2619,0.2652,0.2706,0.2797,0.285,0.2949,0.3001,0.308,0.3134,0.3181,0.3237,0.3201,0.3344,0.3292,0.3331,0.3331,0.3307,0.3302,0.3342,0.3366,0.3366,0.3366,0.3366,0,0.234,0.2374,0.2463,0.249,0.2541,0.2627,0.2687,0.2754,0.286,0.2928,0.3019,0.3101,0.3172,0.3259,0.3279,0.3368,0.3382,0.337,0.3373,0.332,0.3315,0.3268,0.3223,0.3369,0.3369,0.3368,0.3367,0,0.2279,0.2342,0.2393,0.2492,0.2517,0.2552,0.2662,0.2715,0.2829,0.2923,0.2962,0.3136,0.3267,0.3337,0.3434,0.3436,0.3427,0.3518,0.3454,0.3448,0.3402,0.3361,0.3283,0.3175,0.3574,0.3575,0.3576,0,0.2255,0.2274,0.2362,0.2386,0.2425,0.249,0.254,0.2669,0.2736,0.2944,0.2995,0.3177,0.33,0.3484,0.3542,0.3613,0.3482,0.3586,0.3508,0.3431,0.3386,0.3218,0.3118,0.3488,0.3488,0.3488,0.3488,0,0.2199,0.2223,0.2263,0.2312,0.2357,0.2417,0.2505,0.2547,0.2708,0.2825,0.3005,0.313,0.3368,0.3474,0.3597,0.3622,0.3445,0.3591,0.3531,0.3358,0.3159,0.3045,0.3383,0.349,0.349,0.349,0.349,0.349,0.2136,0.2143,0.2188,0.2229,0.2278,0.2326,0.2343,0.2462,0.2566,0.2716,0.2914,0.309,0.3343,0.3547,0.3553,0.3571,0.347,0.3493,0.3462,0.3307,0.3166,0.3516,0.361,0.3611,0.3611,0.3611,0.3612,0,0.2055,0.2076,0.2109,0.2146,0.2161,0.2229,0.2305,0.2319,0.24,0.2621,0.2777,0.3064,0.3237,0.3403,0.3564,0.3473,0.327,0.3375,0.3128,0.3041,0.3399,0.3361,0.3382,0.3382,0.3382,0.3382,0.3382,0.3383,0.2009,0.2006,0.2031,0.2019,0.2045,0.2035,0.2055,0.2105,0.2241,0.2426,0.2618,0.2807,0.3186,0.347,0.3494,0.3404,0.3105,0.3007,0.2912,0.3197,0.3204,0.321,0.3165,0.3144,0.3144,0.2449,0.2444,0.244]},{"header":{"parameterUnit":"m.s-1","parameterCategory":2,"la1":30.2991,"la2":30.254,"lo1":-89.0895,"lo2":-89.0444,"dy":0.0017,"dx":0.0017,"nx":28,"ny":28,"refTime":"2024-02-19T03:00:00:Z","depth":"0","parameterNumber":3,"parameterNumberName":"V-component_of_CURRENTS"},"data":[0,0,0,0,0,0,0,0,0,0,0,0,0,0,0,0,0,0,0,0,0,0,0,0,0,0,0,0,0,0,0,0,0,0,0,0,0,0,0,0,0,0,0,0,0,0,0,0,0,0,0,0,0,0,0,0,0,0,-0.0366,-0.0367,0,-0.0439,-0.044,-0.044,-0.0495,-0.0495,-0.0495,-0.0496,-0.0561,-0.0562,-0.0564,0,0,0,0,0,0,0,0,0,0,0,0,0,-0.0316,-0.0316,-0.0366,-0.0367,-0.0367,-0.0439,-0.044,-0.0441,-0.0495,-0.0495,-0.0496,-0.0496,-0.0561,-0.0562,-0.0564,0,0,0,0,0,0,0,0,0,0,0,0,0,-0.0359,-0.0316,-0.0366,-0.0402,-0.0406,-0.0438,-0.044,-0.0441,-0.0495,-0.0495,-0.0496,-0.0496,-0.056,-0.0562,-0.0564,-0.0565,0,0,-0.057,-0.0571,0,0,0,0,0,0,0,0,-0.0356,-0.0361,-0.0396,-0.04,-0.0404,-0.0457,-0.0446,-0.0482,-0.0494,-0.0462,-0.0496,-0.0497,-0.0524,-0.053,-0.0543,-0.0568,-0.0571,-0.0571,-0.0572,-0.0573,-0.0573,0,0,0,0,0,0,0,-0.0353,-0.0358,-0.0396,-0.0397,-0.0402,-0.0429,-0.0436,-0.0453,-0.049,-0.0465,-0.0469,-0.0475,-0.0527,-0.0541,-0.0545,-0.0572,-0.057,-0.0572,-0.0574,-0.0574,-0.0618,-0.0618,0,0,0,0,0,0,-0.0339,-0.0355,-0.0393,-0.0398,-0.038,-0.0429,-0.0437,-0.044,-0.049,-0.0498,-0.0474,-0.0477,-0.0538,-0.0543,-0.0548,-0.0547,-0.0573,-0.0575,-0.0576,-0.0618,-0.0618,-0.0618,0,0,0,0,0,0,-0.0338,-0.0342,-0.039,-0.0377,-0.0385,-0.0429,-0.0433,-0.0442,-0.0454,-0.0497,-0.0505,-0.0478,-0.0538,-0.0545,-0.0561,-0.055,-0.0575,-0.0577,-0.0618,-0.0618,-0.0618,-0.0549,0,0,0,0,0,0,-0.0336,-0.0341,-0.0335,-0.0376,-0.0386,-0.0399,-0.0433,-0.0443,-0.0457,-0.0461,-0.0502,-0.0509,-0.0539,-0.0558,-0.0563,-0.0554,-0.0579,-0.0618,-0.0618,-0.0618,-0.0552,-0.0547,-0.0543,0,0,0,0,0,-0.0334,-0.032,-0.0335,-0.0339,-0.0378,-0.0398,-0.0405,-0.044,-0.0456,-0.0454,-0.0487,-0.0508,-0.0561,-0.0559,-0.0566,-0.0556,-0.0618,-0.0618,-0.0618,-0.0554,-0.0548,-0.0543,0,0,0,0,0,0,-0.0291,-0.0325,-0.0342,-0.0339,-0.0363,-0.0407,-0.0407,-0.0432,-0.0457,-0.0459,-0.0503,-0.0512,-0.0525,-0.055,-0.0547,-0.0571,-0.0594,-0.0595,-0.0544,-0.0538,-0.0534,-0.0513,-0.0581,0,0,0,0,0,-0.0279,-0.0281,-0.0317,-0.0314,-0.0322,-0.0363,-0.0375,-0.0397,-0.0427,-0.0439,-0.047,-0.0503,-0.053,-0.054,-0.0568,-0.0573,-0.0599,-0.0574,-0.057,-0.0566,-0.0555,-0.0595,-0.0593,-0.0617,-0.0617,-0.0617,0,0,-0.0262,-0.028,-0.0282,-0.0305,-0.0327,-0.0327,-0.0371,-0.0381,-0.0384,-0.044,-0.0449,-0.0486,-0.0529,-0.0541,-0.0549,-0.0559,-0.057,-0.0565,-0.0561,-0.0553,-0.0594,-0.0592,-0.059,-0.0617,-0.0617,-0.0617,0,0,-0.0223,-0.0243,-0.023,-0.0246,-0.0271,-0.0295,-0.0293,-0.0332,-0.0351,-0.0366,-0.041,-0.0441,-0.0476,-0.0509,-0.0528,-0.0515,-0.0547,-0.0522,-0.0479,-0.0518,-0.0516,-0.0514,-0.0531,-0.0532,-0.0518,-0.0518,-0.0517,0,-0.0199,-0.0191,-0.0228,-0.022,-0.0224,-0.0274,-0.0258,-0.0284,-0.0324,-0.0332,-0.0358,-0.0421,-0.0462,-0.048,-0.0481,-0.0503,-0.0521,-0.0493,-0.051,-0.051,-0.051,-0.0527,-0.0529,-0.0514,-0.0515,-0.0515,-0.0515,0,-0.0155,-0.0148,-0.0139,-0.0147,-0.0156,-0.015,-0.0188,-0.0198,-0.0228,-0.026,-0.0287,-0.035,-0.0386,-0.0409,-0.0441,-0.0456,-0.0467,-0.05,-0.0519,-0.0503,-0.0523,-0.0526,-0.0509,-0.0511,-0.0512,-0.0512,0,0,-0.01,-0.0106,-0.0103,-0.0089,-0.0116,-0.0113,-0.0116,-0.0131,-0.0125,-0.0181,-0.018,-0.0251,-0.029,-0.0316,-0.0366,-0.0404,-0.0425,-0.0443,-0.0446,-0.0449,-0.0489,-0.049,-0.0494,-0.0459,-0.0459,-0.0459,-0.0499,0,-0.0051,-0.0015,-0.0035,0.0004,0.002,-0.002,-0.0015,-0.0038,-0.007,-0.0083,-0.0159,-0.0182,-0.0253,-0.0267,-0.0317,-0.0396,-0.0431,-0.041,-0.0513,-0.0516,-0.0512,-0.0497,-0.0481,-0.0514,-0.0502,-0.0502,-0.0503,0,0.0,0.0018,0.0064,0.0082,0.0088,0.0099,0.0104,0.0102,0.0062,0.0033,-0.0012,-0.0068,-0.0129,-0.0196,-0.0317,-0.0297,-0.0383,-0.0451,-0.0455,-0.0481,-0.0523,-0.0533,-0.052,-0.0707,-0.0508,-0.0507,-0.0507,0,0.0061,0.0091,0.0134,0.0138,0.0147,0.0162,0.0163,0.0138,0.0156,0.0108,0.0112,0.0021,-0.0008,-0.0134,-0.0275,-0.0295,-0.0404,-0.0455,-0.0535,-0.0535,-0.0554,-0.0555,-0.0726,-0.0541,-0.0541,-0.0541,-0.0541,0,0.012,0.0157,0.0167,0.0191,0.0247,0.0226,0.0273,0.0256,0.0255,0.0292,0.018,0.0194,0.0006,-0.0078,-0.023,-0.0376,-0.0373,-0.0516,-0.0546,-0.0528,-0.0527,-0.0718,-0.0827,-0.0542,-0.0542,-0.0542,-0.0542,0,0.0181,0.0185,0.0241,0.0266,0.0278,0.0317,0.0356,0.0396,0.0369,0.0416,0.0411,0.0337,0.0224,0.0037,-0.0152,-0.0297,-0.0558,-0.051,-0.0462,-0.0486,-0.0742,-0.0846,-0.1034,-0.1119,-0.0605,-0.0605,-0.0605,0,0.0214,0.0249,0.0301,0.0344,0.036,0.0408,0.0451,0.045,0.0503,0.0514,0.0559,0.0474,0.0442,0.0166,-0.0112,-0.0366,-0.0556,-0.0525,-0.0576,-0.0745,-0.0885,-0.0961,-0.1025,-0.0571,-0.057,-0.057,-0.057,0,0.0285,0.0302,0.0348,0.0432,0.0491,0.0558,0.0621,0.0685,0.0701,0.0749,0.0813,0.0796,0.0531,0.0299,-0.0063,-0.0263,-0.0658,-0.0531,-0.0732,-0.0887,-0.0958,-0.1055,-0.0545,-0.057,-0.057,-0.057,-0.057,-0.057,0.0338,0.0385,0.0448,0.0532,0.0606,0.0707,0.0781,0.0865,0.0974,0.1073,0.1036,0.106,0.0679,0.0197,-0.0109,-0.0651,-0.0668,-0.0813,-0.0926,-0.0988,-0.1076,-0.0548,-0.0596,-0.0596,-0.0596,-0.0596,-0.0596,0,0.0406,0.046,0.0544,0.0648,0.075,0.0768,0.0903,0.0995,0.1145,0.1249,0.1313,0.1177,0.0696,0.0182,-0.0544,-0.0954,-0.112,-0.1194,-0.132,-0.1367,-0.0917,-0.0922,-0.1012,-0.1012,-0.1011,-0.1011,-0.1011,-0.1011,0.0445,0.0538,0.0582,0.0756,0.0835,0.0977,0.1064,0.1205,0.1319,0.1479,0.1534,0.153,0.1153,-0.0199,-0.1148,-0.1383,-0.1667,-0.1732,-0.1888,-0.1607,-0.1581,-0.1556,-0.1588,-0.1815,-0.1817,-0.2278,-0.2283,-0.2286]}],[{"header":{"parameterUnit":"m.s-1","parameterCategory":2,"la1":30.2991,"la2":30.254,"lo1":-89.0895,"lo2":-89.0444,"dy":0.0017,"dx":0.0017,"nx":28,"ny":28,"refTime":"2024-02-19T03:00:00:Z","depth":"2","parameterNumber":2,"parameterNumberName":"U-component_of_CURRENTS"},"data":[0,0,0,0,0,0,0,0,0,0,0,0,0,0,0,0,0,0,0,0,0,0,0,0,0,0,0,0,0,0,0,0,0,0,0,0,0,0,0,0,0,0,0,0,0,0,0,0,0,0,0,0,0,0,0,0,0,0,0.2242,0.2242,0,0.2305,0.2306,0.2306,0.2325,0.2325,0.2324,0.2324,0.2344,0.2345,0.2345,0,0,0,0,0,0,0,0,0,0,0,0,0,0.2144,0.2145,0.2241,0.2242,0.2243,0.2305,0.2306,0.2306,0.2325,0.2325,0.2324,0.2324,0.2344,0.2345,0.2345,0,0,0,0,0,0,0,0,0,0,0,0,0,0.2193,0.2146,0.2241,0.2262,0.2264,0.2305,0.2306,0.2307,0.2325,0.2325,0.2324,0.2324,0.2344,0.2345,0.2346,0.2356,0,0,0.2349,0.2349,0,0,0,0,0,0,0,0,0.219,0.2196,0.2258,0.226,0.2263,0.2309,0.2279,0.2322,0.2325,0.23,0.2324,0.2324,0.233,0.2332,0.2342,0.2357,0.2358,0.2349,0.2349,0.235,0.235,0,0,0,0,0,0,0,0.2187,0.2193,0.2265,0.2259,0.2262,0.2271,0.2277,0.2287,0.2313,0.2302,0.2304,0.2314,0.2331,0.2341,0.2342,0.2358,0.2349,0.2349,0.235,0.235,0.2428,0.2429,0,0,0,0,0,0,0.2183,0.219,0.2263,0.2267,0.2228,0.2273,0.228,0.2293,0.2314,0.2318,0.2315,0.2315,0.2339,0.2341,0.2343,0.2393,0.235,0.2351,0.2351,0.2426,0.2428,0.243,0,0,0,0,0,0,0.2181,0.2189,0.226,0.2231,0.2241,0.2275,0.2289,0.2294,0.2312,0.2324,0.2327,0.2329,0.2339,0.2342,0.2368,0.2392,0.2351,0.2352,0.2425,0.2427,0.2429,0.2469,0,0,0,0,0,0,0.2178,0.2188,0.2197,0.2231,0.2243,0.2293,0.229,0.2296,0.232,0.2321,0.2337,0.2338,0.2339,0.2367,0.2369,0.2393,0.2353,0.2423,0.2426,0.2428,0.2466,0.2473,0.2478,0,0,0,0,0,0.2174,0.2188,0.2197,0.2206,0.2255,0.2294,0.23,0.2321,0.2321,0.2335,0.2349,0.2338,0.2386,0.2369,0.2371,0.2396,0.2421,0.2425,0.2428,0.2464,0.2471,0.2478,0,0,0,0,0,0,0.2148,0.2192,0.2203,0.2229,0.2263,0.2298,0.2316,0.2327,0.235,0.2352,0.2355,0.2358,0.2393,0.239,0.2371,0.2428,0.2403,0.2407,0.2429,0.2437,0.2442,0.2451,0.2354,0,0,0,0,0,0.2148,0.2173,0.2213,0.2236,0.2254,0.2285,0.2304,0.2321,0.2346,0.2356,0.2367,0.2384,0.2408,0.2417,0.2436,0.2462,0.2473,0.2481,0.2487,0.2492,0.2503,0.2543,0.2553,0.244,0.244,0.244,0,0,0.2142,0.2172,0.2185,0.2232,0.226,0.2293,0.2296,0.2332,0.2361,0.2354,0.2392,0.2406,0.2422,0.2458,0.2473,0.2457,0.2532,0.2496,0.25,0.2508,0.2547,0.2558,0.2568,0.2443,0.2442,0.2442,0,0,0.2146,0.2174,0.2197,0.2231,0.228,0.2303,0.2315,0.2356,0.2378,0.2415,0.2424,0.2454,0.248,0.2504,0.2517,0.2567,0.2565,0.2572,0.2605,0.2644,0.2654,0.2662,0.2694,0.2705,0.2571,0.2571,0.2571,0,0.2136,0.2176,0.2209,0.2245,0.2276,0.2308,0.2341,0.2372,0.2415,0.244,0.2432,0.2497,0.2506,0.2561,0.2583,0.2581,0.26,0.2574,0.2652,0.266,0.2668,0.2699,0.271,0.2573,0.2573,0.2573,0.2572,0,0.2162,0.2197,0.2217,0.2274,0.2309,0.2346,0.2394,0.2427,0.2451,0.2481,0.2539,0.256,0.2598,0.2608,0.2611,0.2678,0.2673,0.2657,0.2631,0.2682,0.2711,0.2722,0.2576,0.2576,0.2575,0.2574,0,0,0.2128,0.2216,0.2223,0.2257,0.2331,0.236,0.2416,0.2477,0.2515,0.2555,0.2609,0.2656,0.2669,0.2686,0.2696,0.273,0.2802,0.2721,0.2722,0.2748,0.2891,0.2882,0.2893,0.2801,0.2803,0.2805,0.2889,0,0.2138,0.2202,0.2248,0.2308,0.2346,0.2402,0.2453,0.2512,0.2557,0.2616,0.2656,0.2709,0.2699,0.2723,0.2759,0.2798,0.2834,0.2781,0.2842,0.2844,0.2825,0.2906,0.2705,0.2763,0.29,0.2902,0.2903,0,0.2147,0.2193,0.2249,0.2336,0.2358,0.2396,0.2482,0.2535,0.2625,0.2665,0.2724,0.2758,0.2832,0.2805,0.2898,0.2867,0.2888,0.2906,0.291,0.2895,0.2856,0.2735,0.2778,0.2922,0.2921,0.2919,0.2918,0,0.2105,0.2193,0.2235,0.2267,0.2365,0.2399,0.2454,0.2544,0.2598,0.27,0.2752,0.2829,0.2883,0.2925,0.2975,0.2944,0.3071,0.3025,0.3034,0.3033,0.2871,0.2853,0.3088,0.3088,0.3088,0.3088,0.3087,0,0.2098,0.2132,0.2218,0.2241,0.2296,0.2378,0.2442,0.2511,0.2614,0.2683,0.2773,0.2846,0.2919,0.2996,0.3014,0.3078,0.3104,0.3067,0.3067,0.2881,0.2863,0.3001,0.299,0.3091,0.309,0.309,0.3089,0,0.2042,0.21,0.2151,0.2246,0.2274,0.2313,0.2426,0.2477,0.2591,0.2685,0.2725,0.2881,0.2996,0.3062,0.3148,0.3137,0.3185,0.3193,0.2975,0.2948,0.3106,0.3096,0.3211,0.3212,0.3212,0.3213,0.3213,0,0.202,0.2038,0.2128,0.2152,0.2193,0.2262,0.2312,0.244,0.2504,0.27,0.2746,0.2909,0.3004,0.3154,0.3181,0.3231,0.3238,0.305,0.2954,0.3138,0.3125,0.3114,0.3103,0.2749,0.2746,0.2743,0.2741,0,0.1969,0.1997,0.2035,0.2086,0.2133,0.2195,0.2283,0.2323,0.248,0.2585,0.2736,0.2834,0.3015,0.3008,0.3097,0.3085,0.3026,0.2996,0.3255,0.276,0.2712,0.2697,0.2699,0.2716,0.2718,0.272,0.2722,0.2723,0.1917,0.1925,0.1971,0.2014,0.2064,0.2109,0.2128,0.2236,0.2329,0.2453,0.2619,0.2709,0.2805,0.2858,0.2814,0.279,0.2975,0.2833,0.2837,0.2845,0.2787,0.2744,0.2742,0.2744,0.2747,0.2749,0.275,0,0.1847,0.1868,0.19,0.1939,0.1952,0.2021,0.2092,0.2095,0.2159,0.2321,0.2435,0.2341,0.2398,0.2476,0.2429,0.2467,0.2388,0.2353,0.2221,0.2253,0.2279,0.2184,0.1983,0.198,0.1977,0.1974,0,0,0.1807,0.1804,0.1825,0.1815,0.1843,0.1834,0.1852,0.1881,0.1971,0.2011,0.2067,0.2288,0.2432,0.2161,0.2169,0.2064,0.2121,0.1991,0.2623,0.2502,0.2523,0.2598,0.2496,0,0,0,0,0]},{"header":{"parameterUnit":"m.s-1","parameterCategory":2,"la1":30.2991,"la2":30.254,"lo1":-89.0895,"lo2":-89.0444,"dy":0.0017,"dx":0.0017,"nx":28,"ny":28,"refTime":"2024-02-19T03:00:00:Z","depth":"2","parameterNumber":3,"parameterNumberName":"V-component_of_CURRENTS"},"data":[0,0,0,0,0,0,0,0,0,0,0,0,0,0,0,0,0,0,0,0,0,0,0,0,0,0,0,0,0,0,0,0,0,0,0,0,0,0,0,0,0,0,0,0,0,0,0,0,0,0,0,0,0,0,0,0,0,0,-0.0109,-0.011,0,-0.0183,-0.0184,-0.0185,-0.0241,-0.0241,-0.0242,-0.0242,-0.031,-0.0312,-0.0313,0,0,0,0,0,0,0,0,0,0,0,0,0,-0.0055,-0.0055,-0.0109,-0.011,-0.0111,-0.0183,-0.0184,-0.0185,-0.0241,-0.0241,-0.0242,-0.0242,-0.031,-0.0312,-0.0313,0,0,0,0,0,0,0,0,0,0,0,0,0,-0.0099,-0.0055,-0.0109,-0.0147,-0.0151,-0.0183,-0.0184,-0.0186,-0.0241,-0.0241,-0.0242,-0.0242,-0.0309,-0.0311,-0.0314,-0.0314,0,0,-0.032,-0.0321,0,0,0,0,0,0,0,0,-0.0096,-0.0101,-0.014,-0.0144,-0.0149,-0.0203,-0.019,-0.0228,-0.024,-0.0207,-0.0242,-0.0243,-0.0273,-0.0278,-0.0292,-0.0317,-0.032,-0.032,-0.0322,-0.0322,-0.0323,0,0,0,0,0,0,0,-0.0093,-0.0098,-0.0139,-0.0141,-0.0146,-0.0173,-0.018,-0.0198,-0.0236,-0.021,-0.0214,-0.0221,-0.0275,-0.029,-0.0294,-0.0321,-0.032,-0.0322,-0.0323,-0.0324,-0.0366,-0.0366,0,0,0,0,0,0,-0.008,-0.0095,-0.0137,-0.0142,-0.0123,-0.0173,-0.0181,-0.0185,-0.0236,-0.0244,-0.022,-0.0223,-0.0286,-0.0291,-0.0296,-0.0297,-0.0322,-0.0324,-0.0326,-0.0366,-0.0366,-0.0366,0,0,0,0,0,0,-0.0078,-0.0083,-0.0134,-0.012,-0.0128,-0.0173,-0.0178,-0.0187,-0.0201,-0.0244,-0.0252,-0.0226,-0.0286,-0.0293,-0.0311,-0.0301,-0.0325,-0.0327,-0.0366,-0.0366,-0.0366,-0.0301,0,0,0,0,0,0,-0.0076,-0.0082,-0.0078,-0.0118,-0.0128,-0.0145,-0.0178,-0.0187,-0.0204,-0.0209,-0.0251,-0.0259,-0.0287,-0.0308,-0.0313,-0.0304,-0.0329,-0.0366,-0.0366,-0.0366,-0.0303,-0.0299,-0.0294,0,0,0,0,0,-0.0074,-0.0063,-0.0078,-0.0083,-0.0123,-0.0144,-0.0151,-0.0187,-0.0203,-0.0204,-0.0236,-0.0257,-0.031,-0.0309,-0.0316,-0.0307,-0.0367,-0.0366,-0.0366,-0.0305,-0.0299,-0.0295,0,0,0,0,0,0,-0.0036,-0.0069,-0.0086,-0.0085,-0.011,-0.0153,-0.0155,-0.018,-0.0207,-0.021,-0.0253,-0.0262,-0.0276,-0.03,-0.0298,-0.0319,-0.0343,-0.0343,-0.0294,-0.0289,-0.0285,-0.0267,-0.0331,0,0,0,0,0,-0.0025,-0.0028,-0.0064,-0.0063,-0.0072,-0.0112,-0.0125,-0.0148,-0.0178,-0.0191,-0.0223,-0.0255,-0.0279,-0.029,-0.0317,-0.0323,-0.035,-0.0323,-0.0318,-0.0314,-0.0306,-0.0342,-0.034,-0.0364,-0.0364,-0.0364,0,0,-0.0011,-0.0029,-0.0031,-0.0055,-0.0077,-0.0079,-0.0122,-0.0134,-0.0137,-0.0192,-0.0204,-0.0239,-0.0278,-0.0291,-0.0298,-0.0308,-0.0322,-0.0314,-0.031,-0.0303,-0.0342,-0.0339,-0.0337,-0.0364,-0.0364,-0.0364,0,0,0.0023,0.0002,0.0014,-0.0002,-0.0027,-0.005,-0.005,-0.0089,-0.0108,-0.0125,-0.0166,-0.0196,-0.0231,-0.0259,-0.0277,-0.0263,-0.0298,-0.027,-0.023,-0.0266,-0.0264,-0.0263,-0.0289,-0.0291,-0.0266,-0.0266,-0.0266,0,0.0043,0.005,0.0014,0.0022,0.0017,-0.0032,-0.0017,-0.0042,-0.0083,-0.0093,-0.0119,-0.018,-0.0217,-0.0231,-0.0231,-0.0252,-0.0274,-0.0245,-0.0259,-0.0258,-0.0258,-0.0286,-0.0288,-0.0262,-0.0263,-0.0263,-0.0263,0,0.0082,0.0088,0.0096,0.0089,0.008,0.0084,0.0048,0.0036,0.0005,-0.0025,-0.0053,-0.0111,-0.0146,-0.0165,-0.0195,-0.0207,-0.0224,-0.025,-0.0268,-0.0251,-0.0282,-0.0286,-0.0258,-0.0259,-0.026,-0.0261,0,0,0.0128,0.0125,0.0128,0.0141,0.0117,0.0118,0.0114,0.0099,0.0102,0.0048,0.0045,-0.0017,-0.0056,-0.008,-0.0125,-0.0159,-0.0183,-0.0196,-0.0199,-0.0214,-0.0252,-0.0264,-0.027,-0.0209,-0.021,-0.021,-0.0272,0,0.0172,0.0207,0.019,0.0226,0.0243,0.0204,0.0208,0.0186,0.0152,0.0136,0.0067,0.0043,-0.0021,-0.0036,-0.0081,-0.0156,-0.019,-0.0163,-0.0273,-0.0276,-0.0283,-0.0274,-0.025,-0.0303,-0.0276,-0.0277,-0.0277,0,0.0218,0.0237,0.028,0.03,0.0304,0.0313,0.0314,0.0312,0.0272,0.0242,0.0197,0.0143,0.0086,0.0028,-0.0092,-0.0069,-0.0152,-0.0216,-0.0221,-0.0256,-0.0296,-0.0318,-0.0311,-0.0284,-0.0284,-0.0283,-0.0283,0,0.0272,0.0302,0.0342,0.0346,0.0356,0.0367,0.037,0.0344,0.0358,0.031,0.0309,0.0222,0.0189,0.0073,-0.0065,-0.0078,-0.0195,-0.0233,-0.0321,-0.0323,-0.0335,-0.0337,-0.0315,-0.0315,-0.0315,-0.0315,-0.0315,0,0.0327,0.0359,0.037,0.0392,0.0444,0.0425,0.0466,0.0449,0.0445,0.0475,0.037,0.0373,0.02,0.0112,-0.0029,-0.018,-0.0172,-0.0308,-0.0339,-0.0312,-0.0311,-0.0324,-0.0324,-0.0317,-0.0317,-0.0316,-0.0316,0,0.0378,0.0383,0.0434,0.0458,0.047,0.0505,0.0541,0.0574,0.0547,0.0584,0.0578,0.0494,0.0374,0.0198,0.0014,-0.012,-0.0273,-0.0329,-0.028,-0.0304,-0.0387,-0.0383,-0.0435,-0.0436,-0.0437,-0.0438,-0.0438,0,0.0407,0.0439,0.0487,0.0524,0.0536,0.0581,0.0621,0.0623,0.0667,0.0665,0.07,0.0602,0.0549,0.0271,0.0015,-0.023,-0.0266,-0.0367,-0.0396,-0.0374,-0.0399,-0.0394,-0.0389,-0.0389,-0.0389,-0.0389,-0.0389,0,0.0468,0.0481,0.0522,0.0598,0.065,0.0713,0.077,0.0825,0.084,0.0869,0.0902,0.0864,0.0597,0.0358,0.0014,-0.0156,-0.033,-0.0377,-0.0368,-0.0358,-0.0335,-0.0357,-0.0354,-0.039,-0.0389,-0.0389,-0.0389,-0.0389,0.051,0.0552,0.0607,0.0681,0.0748,0.0838,0.0904,0.0973,0.1058,0.1116,0.1071,0.1024,0.0731,0.0307,-0.0008,-0.0337,-0.0326,-0.0437,-0.0435,-0.0433,-0.0413,-0.0392,-0.0453,-0.0454,-0.0454,-0.0454,-0.0454,0,0.0565,0.0612,0.0687,0.0778,0.0866,0.0887,0.1005,0.1077,0.1188,0.1236,0.1257,0.1008,0.0715,0.0375,-0.0111,-0.0404,-0.0433,-0.0495,-0.0464,-0.046,-0.0458,-0.0439,-0.0487,-0.0487,-0.0488,-0.0489,0,0,0.0596,0.0675,0.0715,0.0862,0.0932,0.1055,0.113,0.1235,0.1299,0.1355,0.1337,0.1263,0.0844,0.0495,0.0081,-0.0202,-0.0264,-0.026,-0.0202,-0.0114,-0.0108,-0.0393,-0.0355,0,0,0,0,0]}],[{"header":{"parameterUnit":"m.s-1","parameterCategory":2,"la1":30.2991,"la2":30.254,"lo1":-89.0895,"lo2":-89.0444,"dy":0.0017,"dx":0.0017,"nx":28,"ny":28,"refTime":"2024-02-19T03:00:00:Z","depth":"4","parameterNumber":2,"parameterNumberName":"U-component_of_CURRENTS"},"data":[0,0,0,0,0,0,0,0,0,0,0,0,0,0,0,0,0,0,0,0,0,0,0,0,0,0,0,0,0,0,0,0,0,0,0,0,0,0,0,0,0,0,0,0,0,0,0,0,0,0,0,0,0,0,0,0,0,0,0.1509,0.151,0,0.1599,0.16,0.1601,0.1666,0.1667,0.1668,0.1669,0.1758,0.1759,0.1761,0,0,0,0,0,0,0,0,0,0,0,0,0,0.1396,0.1398,0.1509,0.1511,0.1512,0.1599,0.16,0.1601,0.1666,0.1667,0.1668,0.1669,0.1757,0.1759,0.1761,0,0,0,0,0,0,0,0,0,0,0,0,0,0.146,0.1398,0.1509,0.1556,0.1561,0.1599,0.16,0.1601,0.1666,0.1667,0.1668,0.1669,0.1756,0.1759,0.1761,0.1756,0,0,0.1769,0.177,0,0,0,0,0,0,0,0,0.1456,0.1464,0.1548,0.1553,0.1559,0.1624,0.1593,0.1653,0.1666,0.1625,0.1669,0.167,0.1713,0.1719,0.1732,0.176,0.1764,0.177,0.1771,0.1772,0.1773,0,0,0,0,0,0,0,0.1452,0.146,0.1543,0.1549,0.1556,0.1573,0.1583,0.1605,0.166,0.1628,0.1634,0.1646,0.1716,0.1729,0.1734,0.1765,0.1769,0.1772,0.1773,0.1774,0.1895,0.1896,0,0,0,0,0,0,0.1443,0.1456,0.154,0.1546,0.1511,0.1575,0.1586,0.1601,0.1661,0.1671,0.1645,0.1649,0.1724,0.1731,0.1738,0.1827,0.1772,0.1775,0.1776,0.1893,0.1895,0.1897,0,0,0,0,0,0,0.144,0.145,0.1537,0.1504,0.1517,0.1576,0.1592,0.1602,0.1648,0.1673,0.1684,0.1684,0.1725,0.1734,0.179,0.1827,0.1776,0.1778,0.1891,0.1894,0.1896,0.1946,0,0,0,0,0,0,0.1436,0.1448,0.1471,0.1504,0.1518,0.158,0.1591,0.1603,0.1653,0.1659,0.171,0.1718,0.1727,0.1786,0.1792,0.183,0.178,0.1889,0.1892,0.1895,0.1942,0.1949,0.1956,0,0,0,0,0,0.1432,0.1454,0.1471,0.1482,0.1542,0.1581,0.1591,0.1634,0.1654,0.1679,0.1718,0.1718,0.181,0.1789,0.1796,0.1835,0.1887,0.1891,0.1895,0.1939,0.1948,0.1956,0,0,0,0,0,0,0.1418,0.1464,0.1483,0.1519,0.1558,0.1593,0.1627,0.165,0.17,0.1718,0.1737,0.1748,0.1812,0.1815,0.1792,0.188,0.185,0.1855,0.188,0.1889,0.1896,0.1896,0.1782,0,0,0,0,0,0.1424,0.1456,0.1495,0.1529,0.1551,0.1594,0.1621,0.165,0.1691,0.1716,0.1751,0.1789,0.1826,0.1852,0.1882,0.1927,0.1931,0.1957,0.1965,0.197,0.1976,0.201,0.2021,0.1909,0.1909,0.1909,0,0,0.1428,0.1459,0.1478,0.153,0.1566,0.1602,0.1614,0.1666,0.1705,0.1716,0.179,0.1818,0.1845,0.1901,0.1929,0.1913,0.2007,0.1975,0.198,0.1982,0.2015,0.2026,0.2035,0.1912,0.1911,0.1911,0,0,0.1441,0.1482,0.151,0.1546,0.1606,0.163,0.1651,0.1705,0.1745,0.1805,0.1828,0.1879,0.1934,0.1963,0.1981,0.2043,0.2044,0.2059,0.2096,0.213,0.2139,0.2147,0.2172,0.2182,0.2062,0.2062,0.2062,0,0.1447,0.1488,0.1525,0.1563,0.1599,0.1645,0.1683,0.1725,0.1793,0.1828,0.1839,0.1937,0.1962,0.2025,0.2054,0.206,0.2077,0.206,0.2138,0.2146,0.2154,0.2177,0.2188,0.2065,0.2065,0.2064,0.2064,0,0.1473,0.1519,0.1543,0.1604,0.1645,0.169,0.1745,0.1797,0.1847,0.1885,0.197,0.2007,0.2064,0.2083,0.2092,0.2163,0.2158,0.2143,0.2113,0.2168,0.2189,0.2199,0.2069,0.2068,0.2067,0.2066,0,0,0.1448,0.1541,0.1554,0.1593,0.1675,0.1708,0.178,0.185,0.1903,0.1971,0.2039,0.2108,0.2135,0.2158,0.2179,0.2212,0.2284,0.2209,0.2209,0.2228,0.2363,0.2233,0.2231,0.2286,0.2288,0.229,0.2358,0,0.1461,0.1528,0.1577,0.1651,0.169,0.176,0.182,0.1892,0.1957,0.2033,0.2088,0.2161,0.2161,0.2203,0.2238,0.228,0.2312,0.2266,0.2312,0.2313,0.2187,0.2239,0.2296,0.2365,0.2368,0.2369,0.237,0,0.1466,0.1514,0.1583,0.168,0.1707,0.1759,0.1865,0.1927,0.2033,0.2089,0.2164,0.221,0.2293,0.2276,0.2365,0.2341,0.2361,0.2377,0.238,0.2246,0.2201,0.2299,0.2388,0.2386,0.2385,0.2384,0.2383,0,0.1418,0.1518,0.1574,0.1609,0.172,0.1775,0.1842,0.1947,0.201,0.2133,0.2193,0.228,0.2346,0.2385,0.2434,0.2413,0.2515,0.2482,0.2379,0.237,0.2443,0.2433,0.2533,0.2533,0.2533,0.2532,0.2532,0,0.1398,0.1449,0.1563,0.1594,0.1671,0.176,0.1851,0.1931,0.2047,0.2118,0.2223,0.2283,0.238,0.2447,0.2464,0.2456,0.2542,0.2394,0.2381,0.2463,0.2455,0.245,0.244,0.2535,0.2534,0.2534,0.2533,0,0.1335,0.141,0.1482,0.1606,0.165,0.1707,0.1851,0.1907,0.2035,0.2133,0.218,0.2317,0.2402,0.2476,0.2551,0.2486,0.2495,0.2469,0.257,0.256,0.2318,0.231,0.2348,0.2344,0.234,0.2337,0.2335,0,0.1305,0.1336,0.1472,0.1515,0.1579,0.1679,0.1742,0.1884,0.1944,0.2128,0.2161,0.23,0.2374,0.2378,0.2461,0.2486,0.2457,0.2439,0.2356,0.2317,0.2301,0.2298,0.2294,0.233,0.2329,0.2328,0.2327,0,0.1245,0.1306,0.1363,0.145,0.1527,0.1604,0.1709,0.1738,0.1896,0.2029,0.2094,0.2144,0.2238,0.229,0.2337,0.2344,0.2435,0.2403,0.2408,0.233,0.2296,0.2283,0.2283,0.2315,0.2317,0.2318,0.2319,0,0.1201,0.1223,0.1303,0.1372,0.1458,0.1503,0.1572,0.1647,0.1723,0.1917,0.1931,0.2082,0.221,0.2219,0.2258,0.2265,0.2221,0.2133,0.2152,0.2166,0.2075,0.2002,0.1927,0,0,0,0,0,0.1147,0.1163,0.1218,0.1284,0.1363,0.1419,0.1537,0.1608,0.1752,0.175,0.1836,0.1913,0.1977,0.2055,0.2025,0.2183,0.2233,0.2138,0.214,0.2251,0.2264,0.2174,0,0,0,0,0,0,0.1109,0.1156,0.1182,0.1195,0.1222,0.1299,0.137,0.1472,0.148,0.1632,0.168,0.1797,0.1892,0.1976,0.1988,0.2012,0.1974,0.2234,0.2229,0.2243,0.2255,0.2266,0.2178,0,0,0,0,0]},{"header":{"parameterUnit":"m.s-1","parameterCategory":2,"la1":30.2991,"la2":30.254,"lo1":-89.0895,"lo2":-89.0444,"dy":0.0017,"dx":0.0017,"nx":28,"ny":28,"refTime":"2024-02-19T03:00:00:Z","depth":"4","parameterNumber":3,"parameterNumberName":"V-component_of_CURRENTS"},"data":[0,0,0,0,0,0,0,0,0,0,0,0,0,0,0,0,0,0,0,0,0,0,0,0,0,0,0,0,0,0,0,0,0,0,0,0,0,0,0,0,0,0,0,0,0,0,0,0,0,0,0,0,0,0,0,0,0,0,0.0021,0.002,0,-0.0034,-0.0035,-0.0036,-0.0079,-0.0079,-0.008,-0.008,-0.014,-0.0142,-0.0143,0,0,0,0,0,0,0,0,0,0,0,0,0,0.0062,0.0061,0.0021,0.002,0.002,-0.0034,-0.0035,-0.0036,-0.0079,-0.0079,-0.008,-0.008,-0.014,-0.0141,-0.0143,0,0,0,0,0,0,0,0,0,0,0,0,0,0.0028,0.0061,0.0021,-0.0008,-0.0011,-0.0034,-0.0035,-0.0036,-0.0079,-0.0079,-0.008,-0.008,-0.0139,-0.0141,-0.0143,-0.0144,0,0,-0.0149,-0.015,0,0,0,0,0,0,0,0,0.003,0.0027,-0.0003,-0.0006,-0.0009,-0.005,-0.0043,-0.0072,-0.0079,-0.0054,-0.008,-0.0081,-0.011,-0.0114,-0.0124,-0.0147,-0.015,-0.0149,-0.015,-0.0151,-0.0152,0,0,0,0,0,0,0,0.0033,0.0029,-0.0002,-0.0004,-0.0007,-0.0028,-0.0033,-0.0049,-0.0079,-0.0056,-0.0059,-0.0064,-0.0112,-0.0122,-0.0126,-0.015,-0.0149,-0.0151,-0.0152,-0.0153,-0.0189,-0.0189,0,0,0,0,0,0,0.0043,0.0031,0.0,-0.0003,0.001,-0.0028,-0.0033,-0.0037,-0.0078,-0.0085,-0.0064,-0.0066,-0.0119,-0.0124,-0.0128,-0.0131,-0.0151,-0.0153,-0.0154,-0.0189,-0.0189,-0.0189,0,0,0,0,0,0,0.0044,0.0041,0.0002,0.0013,0.0007,-0.0027,-0.0031,-0.0038,-0.005,-0.0084,-0.0091,-0.0069,-0.0119,-0.0125,-0.0142,-0.0133,-0.0154,-0.0155,-0.019,-0.0189,-0.0189,-0.0136,0,0,0,0,0,0,0.0046,0.0042,0.0044,0.0014,0.0007,-0.0007,-0.0031,-0.0038,-0.0052,-0.0055,-0.0091,-0.0097,-0.012,-0.0139,-0.0144,-0.0136,-0.0157,-0.019,-0.019,-0.0189,-0.0138,-0.0134,-0.0131,0,0,0,0,0,0.0047,0.0054,0.0044,0.0041,0.0011,-0.0006,-0.0011,-0.0039,-0.0051,-0.0052,-0.0078,-0.0096,-0.0141,-0.014,-0.0146,-0.0139,-0.019,-0.019,-0.0189,-0.014,-0.0135,-0.0131,0,0,0,0,0,0,0.0073,0.005,0.0038,0.0038,0.0019,-0.0013,-0.0015,-0.0034,-0.0056,-0.0058,-0.0093,-0.0101,-0.0114,-0.0133,-0.0132,-0.0149,-0.0169,-0.0169,-0.0129,-0.0125,-0.0121,-0.0108,-0.0159,0,0,0,0,0,0.0081,0.008,0.0053,0.0054,0.0047,0.0017,0.0007,-0.001,-0.0034,-0.0044,-0.007,-0.0096,-0.0116,-0.0126,-0.0148,-0.0153,-0.0179,-0.0154,-0.015,-0.0146,-0.0141,-0.0172,-0.017,-0.0188,-0.0188,-0.0188,0,0,0.0091,0.0079,0.0078,0.0059,0.0044,0.0043,0.001,0.0,-0.0002,-0.0046,-0.0056,-0.0085,-0.0116,-0.0126,-0.0133,-0.014,-0.0156,-0.0146,-0.0143,-0.0139,-0.0171,-0.017,-0.0168,-0.0187,-0.0188,-0.0188,0,0,0.0115,0.0101,0.011,0.0098,0.008,0.0064,0.0063,0.0034,0.0019,0.0005,-0.0027,-0.005,-0.008,-0.0101,-0.0115,-0.0103,-0.0137,-0.011,-0.0078,-0.0108,-0.0107,-0.0106,-0.0137,-0.014,-0.0105,-0.0105,-0.0105,0,0.0129,0.0135,0.011,0.0116,0.0113,0.0077,0.0088,0.007,0.0038,0.003,0.001,-0.0039,-0.0068,-0.0079,-0.0078,-0.0094,-0.0118,-0.009,-0.0102,-0.0102,-0.0102,-0.0135,-0.0138,-0.0103,-0.0103,-0.0103,-0.0104,0,0.0157,0.0164,0.0169,0.0166,0.016,0.0164,0.0138,0.0129,0.0106,0.0083,0.006,0.0015,-0.0013,-0.0026,-0.0049,-0.0059,-0.0078,-0.0095,-0.0111,-0.0097,-0.0133,-0.0137,-0.0099,-0.01,-0.0101,-0.0101,0,0,0.0186,0.019,0.0192,0.0204,0.0189,0.019,0.0189,0.0178,0.018,0.0139,0.0135,0.0089,0.0059,0.004,0.0005,-0.0022,-0.0047,-0.0053,-0.0055,-0.0078,-0.0115,-0.012,-0.0125,-0.0065,-0.0066,-0.0066,-0.014,0,0.0217,0.0247,0.0237,0.0267,0.0281,0.0255,0.026,0.0244,0.0218,0.0205,0.0153,0.0134,0.0086,0.0075,0.0039,-0.0025,-0.0056,-0.0025,-0.013,-0.0133,-0.0134,-0.0129,-0.0067,-0.0143,-0.0144,-0.0145,-0.0146,0,0.0248,0.0266,0.0301,0.0323,0.0327,0.0338,0.0341,0.0341,0.031,0.0288,0.0252,0.0209,0.0164,0.0121,0.0017,0.0039,-0.0031,-0.0085,-0.009,-0.0114,-0.0145,-0.0162,-0.0154,-0.0154,-0.0153,-0.0152,-0.0152,0,0.0283,0.0312,0.0346,0.0351,0.0366,0.0379,0.0386,0.0367,0.0378,0.0342,0.034,0.0269,0.024,0.0144,0.0027,0.0022,-0.009,-0.0113,-0.0185,-0.0187,-0.0184,-0.0184,-0.0185,-0.0185,-0.0185,-0.0185,-0.0185,0,0.0317,0.0345,0.0367,0.0385,0.043,0.0423,0.0458,0.0448,0.0446,0.0466,0.0388,0.038,0.0246,0.0164,0.0049,-0.008,-0.0078,-0.0178,-0.0204,-0.0161,-0.0157,-0.0188,-0.0187,-0.0188,-0.0187,-0.0186,-0.0186,0,0.0344,0.0357,0.0402,0.0433,0.0448,0.0479,0.0518,0.0543,0.0527,0.0549,0.0546,0.0467,0.0355,0.0213,0.0056,-0.0042,-0.017,-0.0217,-0.0156,-0.0178,-0.0254,-0.0249,-0.0304,-0.0305,-0.0305,-0.0306,-0.0306,0,0.0359,0.0386,0.044,0.0473,0.049,0.0535,0.057,0.0581,0.0609,0.0601,0.0618,0.0527,0.0452,0.0233,0.0069,-0.015,-0.0184,-0.0253,-0.0259,-0.0244,-0.0265,-0.026,-0.0255,-0.0307,-0.0307,-0.0307,-0.0308,0,0.0391,0.041,0.0446,0.0517,0.0565,0.0621,0.067,0.07,0.0715,0.0708,0.0683,0.0565,0.0436,0.0248,0.008,-0.008,-0.021,-0.026,-0.026,-0.0267,-0.0249,-0.0268,-0.0262,-0.031,-0.0309,-0.0309,-0.0309,0,0.0412,0.0443,0.0494,0.0555,0.0624,0.0686,0.0708,0.0742,0.077,0.0762,0.0752,0.0604,0.0521,0.0284,0.0126,-0.003,-0.0078,-0.0133,-0.014,-0.014,-0.0077,-0.003,-0.0041,0,0,0,0,0,0.0429,0.0466,0.0528,0.0596,0.0667,0.0708,0.0769,0.0784,0.0801,0.0801,0.0781,0.0661,0.0428,0.0322,0.0167,0.0093,-0.0119,-0.0097,-0.0189,-0.0322,-0.0319,-0.0274,0,0,0,0,0,0,0.044,0.0497,0.0528,0.0621,0.0674,0.0754,0.0797,0.081,0.0805,0.0798,0.0681,0.062,0.0394,0.0525,0.0166,0.0116,0.0034,-0.0207,-0.021,-0.0323,-0.0321,-0.0319,-0.0271,0,0,0,0,0]}]]